GW4068 Weather Reports


time (UTC)temp
F
wind
direction
speed
knots
gust
knots
rain 1hr
in
rain 24hr
in
rain mn
in
humidity
%
barometer
mb
20260507091530 43 219 0.0 0.0 0.00 0.35 0.00 83 1012.9
20260507091011 43 219 0.0 0.0 0.00 0.35 0.00 82 1012.9
20260507090515 44 219 0.0 0.0 0.00 0.36 0.00 81 1012.9
20260507090021 44 219 0.0 0.0 0.00 0.36 0.00 80 1012.8
20260507085507 44 219 0.0 0.0 0.00 0.36 0.00 80 1012.8
20260507085008 45 219 0.0 0.0 0.00 0.36 0.00 79 1012.9
20260507084520 45 219 0.0 0.0 0.00 0.36 0.00 79 1012.9
20260507084011 45 25 0.0 0.9 0.00 0.37 0.00 78 1012.9
20260507083503 45 20 0.0 0.9 0.00 0.37 0.00 78 1013.0
20260507083005 45 300 0.0 0.9 0.00 0.38 0.00 77 1012.9
20260507082506 45 300 0.0 2.6 0.00 0.38 0.00 78 1012.9
20260507082002 45 352 0.9 2.6 0.00 0.38 0.00 77 1012.9
20260507081504 46 215 0.0 0.9 0.00 0.38 0.00 79 1012.9
20260507081002 46 257 0.0 0.9 0.00 0.38 0.00 80 1012.9
20260507080504 46 257 0.0 1.7 0.00 0.38 0.00 80 1012.9
20260507080006 46 321 0.0 1.7 0.00 0.38 0.00 80 1012.9
20260507075507 46 261 0.0 1.7 0.00 0.38 0.00 83 1012.9
20260507075004 46 356 0.0 1.7 0.00 0.38 0.00 83 1012.8
20260507074511 46 271 0.0 0.0 0.00 0.38 0.00 84 1012.9
20260507074003 46 271 0.0 0.0 0.00 0.38 0.00 85 1012.8
20260507073504 45 271 0.0 0.0 0.00 0.38 0.00 84 1012.8
20260507073004 45 271 0.0 0.0 0.00 0.38 0.00 86 1012.8
20260507072504 45 271 0.0 0.0 0.00 0.38 0.00 85 1012.8
20260507072004 45 271 0.0 0.0 0.00 0.38 0.00 85 1012.8
20260507071507 45 271 0.0 0.0 0.00 0.38 0.00 84 1012.9
20260507071004 45 271 0.0 0.0 0.00 0.38 0.00 84 1012.8
20260507070506 45 271 0.0 0.0 0.00 0.38 0.00 84 1012.8
20260507070009 45 271 0.0 0.0 0.00 0.38 0.00 83 1012.7
20260507065502 45 271 0.0 0.0 0.00 0.38 0.00 82 1012.7
20260507065004 45 271 0.0 0.0 0.00 0.38 0.00 82 1012.8
20260507064507 45 271 0.0 0.0 0.00 0.38 0.00 82 1012.8
20260507064002 45 271 0.0 0.0 0.00 0.38 0.00 82 1012.8
20260507063503 45 271 0.0 0.0 0.00 0.38 0.00 82 1013.0
20260507063018 46 271 0.0 0.0 0.00 0.38 0.00 82 1013.0
20260507062503 46 271 0.0 0.0 0.00 0.38 0.00 83 1013.1
20260507062002 46 271 0.0 0.0 0.00 0.38 0.00 82 1013.0
20260507061504 47 280 0.0 0.0 0.00 0.38 0.00 83 1012.9
20260507061004 47 280 0.0 0.0 0.00 0.38 0.00 82 1012.8
20260507060504 48 280 0.0 0.0 0.00 0.38 0.00 83 1012.9
20260507060007 48 280 0.0 0.0 0.00 0.38 0.00 82 1012.8
20260507055503 48 280 0.0 0.0 0.00 0.38 0.00 82 1012.8
20260507055004 49 286 0.0 0.9 0.00 0.38 0.00 83 1012.7
20260507054513 49 286 0.0 1.7 0.00 0.38 0.00 82 1012.7
20260507054003 49 276 0.0 1.7 0.00 0.38 0.00 84 1012.7
20260507053504 49 347 0.0 1.7 0.00 0.38 0.00 84 1012.7
20260507053008 49 21 0.0 0.9 0.00 0.38 0.00 83 1012.5
20260507052504 49 21 0.0 0.9 0.00 0.38 0.00 83 1012.6
20260507052009 49 21 0.0 0.9 0.00 0.38 0.00 82 1012.4
20260507051512 49 23 0.0 2.6 0.00 0.38 0.00 82 1012.6
20260507051017 49 296 0.0 2.6 0.00 0.38 0.00 84 1012.7
20260507050505 49 229 0.9 2.6 0.00 0.38 0.00 83 1012.6
20260507050023 49 224 0.0 1.7 0.00 0.38 0.00 87 1012.5
20260507045506 49 12 0.0 1.7 0.00 0.38 0.00 89 1012.4
20260507045003 49 163 0.0 0.0 0.00 0.38 0.00 89 1012.2
20260507044506 49 163 0.0 0.0 0.00 0.38 0.00 89 1012.3
20260507044004 49 163 0.0 0.0 0.00 0.38 0.00 89 1012.1
20260507043506 49 163 0.0 0.0 0.00 0.38 0.00 89 1012.3
20260507043008 49 163 0.0 0.0 0.00 0.38 0.00 90 1012.2
20260507042504 49 163 0.0 0.0 0.00 0.38 0.00 90 1012.2
20260507042006 49 163 0.0 0.0 0.00 0.38 0.00 90 1012.2
20260507041508 49 163 0.0 0.0 0.00 0.38 0.00 90 1012.3
20260507041006 49 163 0.0 0.0 0.00 0.38 0.00 90 1012.4
20260507040508 49 162 0.0 0.0 0.00 0.38 0.00 90 1012.3
20260507040013 49 163 0.0 0.0 0.00 0.38 0.00 89 1012.1
20260507035504 49 163 0.0 0.0 0.00 0.38 0.38 89 1012.1
20260507035007 49 162 0.0 0.0 0.00 0.38 0.38 89 1012.2
20260507034513 49 162 0.0 0.0 0.00 0.38 0.38 89 1012.2
20260507034006 49 162 0.0 0.0 0.00 0.38 0.38 89 1012.4
20260507033504 49 162 0.0 0.0 0.00 0.38 0.38 89 1012.3
20260507033017 49 179 0.0 0.0 0.00 0.38 0.38 89 1012.4
20260507032505 48 179 0.0 0.0 0.00 0.38 0.38 90 1012.5
20260507032008 48 264 0.0 0.0 0.00 0.38 0.38 90 1012.5
20260507031514 48 264 0.0 0.0 0.00 0.38 0.38 90 1012.3
20260507031008 48 236 0.0 0.0 0.00 0.38 0.38 90 1012.1
20260507030508 48 236 0.0 0.0 0.00 0.38 0.38 90 1012.1
20260507030012 48 234 0.0 0.0 0.00 0.38 0.38 89 1012.0
20260507025509 48 234 0.0 0.0 0.00 0.38 0.38 89 1012.1
20260507025007 48 265 0.0 0.0 0.00 0.38 0.38 89 1012.1
20260507024516 49 265 0.0 0.9 0.00 0.38 0.38 89 1012.1
20260507024007 49 265 0.0 0.9 0.00 0.38 0.38 88 1012.1
20260507023508 49 265 0.0 0.9 0.00 0.38 0.38 88 1012.1
20260507023015 49 265 0.0 0.9 0.00 0.38 0.38 88 1012.2
20260507022509 50 265 0.0 0.0 0.00 0.38 0.38 87 1012.4
20260507022008 50 266 0.0 0.9 0.00 0.38 0.38 87 1012.5
20260507021520 50 265 0.0 0.9 0.00 0.38 0.38 86 1012.7
20260507021004 50 265 0.0 0.9 0.00 0.38 0.38 86 1012.6
20260507020505 50 265 0.0 0.9 0.00 0.38 0.38 86 1012.7
20260507020014 51 265 0.0 0.9 0.00 0.38 0.38 86 1012.8
20260507015507 51 215 0.0 0.0 0.00 0.38 0.38 84 1012.5
20260507015007 51 215 0.0 0.0 0.00 0.38 0.38 85 1012.6
20260507014524 51 215 0.0 0.9 0.00 0.38 0.38 84 1012.7
20260507014009 51 215 0.0 1.7 0.00 0.38 0.38 84 1012.8
20260507013506 51 351 0.0 1.7 0.00 0.38 0.38 85 1012.8
20260507013017 51 158 0.0 3.5 0.00 0.38 0.38 84 1012.4
20260507012508 51 34 0.0 3.5 0.00 0.38 0.38 84 1012.4
20260507012012 51 236 0.0 1.7 0.00 0.38 0.38 85 1013.0
20260507011513 51 25 0.0 0.0 0.00 0.38 0.38 84 1012.9
20260507011010 51 39 0.0 0.0 0.00 0.38 0.38 84 1012.9
20260507010510 51 105 0.0 0.0 0.00 0.38 0.38 84 1012.9
20260507010016 51 108 0.0 0.0 0.00 0.38 0.38 84 1012.6
20260507005507 51 148 0.0 1.7 0.00 0.38 0.38 84 1012.4
20260507005010 51 88 0.0 1.7 0.00 0.38 0.38 84 1012.5
20260507004518 51 101 0.0 0.9 0.00 0.38 0.38 85 1012.3
20260507004013 51 128 0.0 2.6 0.00 0.38 0.38 85 1012.1
20260507003509 51 24 0.9 2.6 0.00 0.38 0.38 85 1011.9
20260507003020 51 68 0.0 3.5 0.00 0.38 0.38 84 1011.7
20260507002510 51 63 0.9 3.5 0.00 0.38 0.38 84 1011.6
20260507002010 52 49 0.0 5.2 0.00 0.38 0.38 84 1011.6
20260507001525 52 109 0.0 5.2 0.00 0.38 0.38 84 1011.5
20260507001012 52 232 0.9 4.3 0.00 0.38 0.38 84 1011.3
20260507000509 52 300 0.9 4.3 0.00 0.38 0.38 83 1011.2
20260507000032 52 68 0.9 4.3 0.00 0.38 0.38 84 1011.1
20260506235508 52 20 0.9 4.3 0.00 0.38 0.38 83 1011.1
20260506235007 52 15 0.9 4.3 0.00 0.38 0.38 83 1011.1
20260506234521 52 129 1.7 4.3 0.00 0.38 0.38 83 1010.9
20260506234011 52 354 0.9 13.0 0.00 0.38 0.38 84 1010.6
20260506233503 52 84 0.9 13.0 0.00 0.38 0.38 83 1010.5
20260506233005 52 21 1.7 5.2 0.00 0.38 0.38 84 1010.5
20260506232504 52 122 1.7 6.1 0.00 0.38 0.38 83 1010.3
20260506232004 52 307 1.7 6.1 0.00 0.38 0.38 83 1010.6
20260506231503 52 338 1.7 4.3 0.00 0.38 0.38 84 1010.4
20260506231003 52 359 0.9 5.2 0.00 0.38 0.38 84 1010.3
20260506230504 52 48 1.7 7.0 0.00 0.38 0.38 85 1010.3
20260506230008 52 11 2.6 7.0 0.00 0.38 0.38 84 1010.4
20260506225505 52 332 1.7 5.2 0.00 0.38 0.38 85 1010.1
20260506225008 52 314 1.7 5.2 0.00 0.38 0.38 85 1010.1
20260506224508 52 70 0.9 4.3 0.00 0.38 0.38 86 1010.1
20260506224006 52 79 1.7 4.3 0.00 0.38 0.38 86 1010.1
20260506223507 52 35 1.7 5.2 0.00 0.38 0.38 86 1010.1
20260506223016 53 336 1.7 9.6 0.00 0.38 0.38 86 1010.1
20260506222503 53 20 0.9 9.6 0.00 0.38 0.38 86 1010.1
20260506222003 53 354 2.6 7.0 0.00 0.38 0.38 86 1009.9
20260506221504 53 27 2.6 7.8 0.00 0.38 0.38 86 1009.8
20260506221007 53 43 2.6 7.8 0.00 0.38 0.38 87 1009.6
20260506220507 53 51 0.9 5.2 0.00 0.38 0.38 87 1009.6
20260506220012 53 305 1.7 5.2 0.01 0.38 0.38 87 1009.5
20260506215507 53 61 0.9 7.0 0.01 0.38 0.38 88 1009.4
20260506215004 53 47 1.7 7.0 0.01 0.38 0.38 88 1009.2
20260506214525 53 220 2.6 7.0 0.01 0.38 0.38 89 1009.0
20260506214004 53 359 2.6 7.0 0.01 0.38 0.38 89 1008.8
20260506213504 54 347 2.6 7.8 0.01 0.38 0.38 89 1008.8
20260506213010 54 316 3.5 7.8 0.01 0.38 0.38 88 1008.7
20260506212507 54 59 2.6 10.4 0.01 0.38 0.38 88 1008.6
20260506212006 54 280 3.5 10.4 0.01 0.38 0.38 87 1008.4
20260506211517 54 9 2.6 12.2 0.01 0.38 0.38 88 1008.5
20260506211003 55 61 3.5 12.2 0.01 0.38 0.38 87 1008.3
20260506210504 56 5 3.5 7.8 0.01 0.38 0.38 86 1008.3
20260506210009 57 331 2.6 9.6 0.00 0.37 0.37 86 1008.3
20260506205504 57 31 2.6 9.6 0.00 0.37 0.37 85 1008.0
20260506205004 58 343 3.5 9.6 0.00 0.37 0.37 84 1007.9
20260506204505 60 337 4.3 9.6 0.00 0.37 0.37 81 1007.8
20260506204002 62 49 1.7 7.0 0.00 0.37 0.37 82 1007.7
20260506203513 63 244 2.6 5.2 0.00 0.37 0.37 85 1007.6
20260506203009 64 86 0.9 0.9 0.00 0.37 0.37 85 1007.2
20260506202507 64 86 0.0 0.9 0.00 0.37 0.37 87 1007.1
20260506202008 63 86 0.0 3.5 0.00 0.37 0.37 86 1007.1
20260506201518 63 71 0.9 3.5 0.00 0.37 0.37 86 1007.1
20260506201008 64 106 0.9 1.7 0.00 0.37 0.37 86 1007.0
20260506200512 64 95 0.9 0.9 0.00 0.37 0.37 88 1007.0
20260506200018 63 97 0.0 0.9 0.00 0.37 0.37 88 1007.0
20260506195507 63 97 0.0 0.9 0.00 0.37 0.37 88 1007.1
20260506195002 63 97 0.0 0.9 0.00 0.37 0.37 90 1007.0
20260506194507 62 97 0.0 0.9 0.00 0.37 0.37 91 1007.1
20260506194003 62 97 0.0 0.9 0.00 0.37 0.37 90 1007.1
20260506193505 61 97 0.0 0.9 0.00 0.37 0.37 90 1007.2
20260506193009 61 97 0.0 0.9 0.00 0.37 0.37 90 1007.2
20260506192511 61 97 0.0 0.9 0.00 0.37 0.37 89 1007.2
20260506192008 61 154 0.0 0.9 0.00 0.37 0.37 89 1007.1
20260506191511 61 153 0.0 1.7 0.00 0.37 0.37 89 1007.0
20260506191007 61 167 0.0 1.7 0.00 0.37 0.37 89 1007.0
20260506190508 61 142 0.0 1.7 0.00 0.37 0.37 89 1007.0
20260506190014 61 134 0.0 1.7 0.00 0.37 0.37 89 1007.1
20260506185506 61 134 0.0 1.7 0.00 0.37 0.37 89 1007.1
20260506185008 61 224 0.0 0.9 0.00 0.37 0.37 89 1007.2
20260506184519 61 224 0.0 1.7 0.00 0.37 0.37 89 1007.1
20260506184009 61 224 0.0 1.7 0.00 0.37 0.37 89 1007.1
20260506183513 61 225 0.0 1.7 0.00 0.37 0.37 89 1007.1
20260506183007 61 214 0.0 0.9 0.00 0.37 0.37 89 1007.1
20260506182502 61 214 0.0 1.7 0.00 0.37 0.37 89 1007.0
20260506182004 61 214 0.9 1.7 0.00 0.37 0.37 89 1007.1
20260506181508 61 213 0.0 0.9 0.00 0.37 0.37 90 1007.1
20260506181005 61 212 0.0 1.7 0.00 0.37 0.37 90 1007.1
20260506180510 61 186 0.0 2.6 0.00 0.37 0.37 90 1007.2
20260506180012 60 212 0.0 2.6 0.00 0.37 0.37 90 1007.1
20260506175505 60 212 0.9 2.6 0.00 0.37 0.37 90 1007.2
20260506175007 60 171 0.0 2.6 0.00 0.37 0.37 90 1007.3
20260506174516 60 131 0.0 2.6 0.00 0.37 0.37 90 1007.3
20260506174007 60 216 0.0 2.6 0.00 0.37 0.37 90 1007.3
20260506173508 60 212 1.7 2.6 0.00 0.37 0.37 90 1007.2
20260506173027 59 202 0.9 1.7 0.00 0.37 0.37 91 1007.2
20260506172507 59 158 0.9 1.7 0.00 0.37 0.37 91 1007.3
20260506172007 59 199 0.9 1.7 0.00 0.37 0.37 91 1007.3
20260506171509 59 203 0.0 1.7 0.00 0.37 0.37 91 1007.4
20260506171005 59 210 0.9 1.7 0.00 0.37 0.37 91 1007.4
20260506170507 59 209 0.0 1.7 0.00 0.37 0.37 91 1007.4
20260506170008 59 212 0.9 1.7 0.00 0.37 0.37 91 1007.5
20260506165503 59 137 0.0 0.9 0.00 0.37 0.37 91 1007.6
20260506165007 59 137 0.0 0.9 0.00 0.37 0.37 92 1007.6
20260506164515 58 136 0.0 1.7 0.00 0.37 0.37 92 1007.5
20260506164008 58 217 0.0 1.7 0.00 0.37 0.37 91 1007.6
20260506163507 58 214 0.0 1.7 0.00 0.37 0.37 91 1007.6
20260506163032 58 205 0.9 0.9 0.00 0.37 0.37 92 1007.6
20260506162510 58 204 0.0 1.7 0.00 0.37 0.37 92 1007.6
20260506162010 58 204 0.9 2.6 0.00 0.37 0.37 92 1007.6
20260506161521 58 168 1.7 2.6 0.00 0.37 0.37 92 1007.6
20260506161010 58 164 1.7 1.7 0.00 0.37 0.37 92 1007.5
20260506160511 57 149 0.9 1.7 0.00 0.37 0.37 92 1007.8
20260506160024 57 145 0.9 1.7 0.01 0.37 0.37 91 1007.8
20260506155503 57 134 0.0 0.9 0.02 0.37 0.37 92 1007.8
20260506155007 57 134 0.0 0.9 0.03 0.37 0.37 92 1007.8
20260506154510 57 134 0.0 0.9 0.03 0.37 0.37 92 1007.7
20260506154009 57 134 0.0 0.9 0.04 0.37 0.37 91 1007.7
20260506153508 57 117 0.0 0.0 0.04 0.37 0.37 92 1007.7
20260506153014 57 117 0.0 0.0 0.04 0.37 0.37 91 1007.6
20260506152507 57 117 0.0 0.0 0.05 0.37 0.37 91 1007.6
20260506152009 57 101 0.0 1.7 0.05 0.37 0.37 92 1007.5
20260506151520 57 101 0.0 1.7 0.06 0.37 0.37 91 1007.5
20260506151008 57 125 0.0 0.9 0.07 0.37 0.37 91 1007.6
20260506150508 57 124 0.0 0.9 0.08 0.37 0.37 92 1007.6
20260506150027 57 217 0.0 0.9 0.07 0.36 0.36 92 1007.7
20260506145515 57 217 0.0 0.9 0.06 0.35 0.35 92 1007.6
20260506145011 57 206 0.9 2.6 0.05 0.34 0.34 91 1007.6
20260506144526 57 163 0.9 2.6 0.06 0.34 0.34 91 1007.7
20260506144008 57 159 0.9 2.6 0.05 0.33 0.33 91 1007.8
20260506143506 57 198 0.9 1.7 0.05 0.33 0.33 91 1007.8
20260506143014 57 162 0.9 1.7 0.05 0.33 0.33 91 1007.6
20260506142509 57 160 0.9 2.6 0.04 0.32 0.32 91 1007.6
20260506142003 57 146 0.9 2.6 0.04 0.32 0.32 91 1007.7
20260506141503 57 179 1.7 2.6 0.03 0.31 0.31 92 1007.8
20260506141003 57 209 0.0 0.9 0.03 0.30 0.30 92 1007.6
20260506140504 57 108 0.0 0.9 0.03 0.29 0.29 92 1007.5
20260506140006 57 108 0.0 2.6 0.04 0.29 0.29 92 1007.6
20260506135504 57 108 0.0 2.6 0.05 0.29 0.29 92 1007.6
20260506135008 57 96 0.0 1.7 0.06 0.29 0.29 92 1007.7
20260506134505 57 182 0.9 1.7 0.06 0.28 0.28 92 1007.7
20260506134007 57 207 0.0 1.7 0.07 0.28 0.28 92 1007.7
20260506133505 57 207 0.9 1.7 0.08 0.28 0.28 92 1007.7
20260506133007 57 198 0.0 0.9 0.09 0.28 0.28 92 1007.8
20260506132505 56 213 0.0 0.9 0.09 0.28 0.28 92 1007.8
20260506132007 56 214 0.0 0.9 0.10 0.28 0.28 92 1007.9
20260506131515 56 215 0.0 0.9 0.11 0.28 0.28 92 1007.8
20260506131007 56 169 0.0 0.9 0.11 0.27 0.27 92 1007.7
20260506130509 56 160 0.0 0.9 0.11 0.26 0.26 92 1007.6
20260506130004 56 160 0.0 0.9 0.11 0.25 0.25 92 1007.7
20260506125502 56 160 0.0 0.9 0.10 0.24 0.24 92 1007.8
20260506125004 56 159 0.0 0.0 0.09 0.23 0.23 92 1007.8
20260506124504 56 159 0.0 0.9 0.09 0.22 0.22 92 1008.1
20260506124004 56 159 0.0 0.9 0.08 0.21 0.21 92 1008.3
20260506123504 56 153 0.0 0.9 0.08 0.20 0.20 92 1008.2
20260506123008 56 235 0.0 0.0 0.07 0.19 0.19 92 1008.5
20260506122505 56 235 0.0 0.0 0.07 0.19 0.19 92 1008.5
20260506122005 56 235 0.0 0.0 0.06 0.19 0.18 92 1008.4
20260506121509 56 235 0.0 0.0 0.05 0.19 0.17 92 1008.5
20260506121005 56 235 0.0 0.9 0.05 0.19 0.16 92 1008.5
20260506120504 56 235 0.0 0.9 0.04 0.19 0.15 92 1008.4
20260506120017 56 235 0.0 0.0 0.03 0.18 0.14 92 1008.3
20260506115510 56 235 0.0 0.0 0.04 0.18 0.14 92 1008.0
20260506115006 56 235 0.0 0.0 0.04 0.18 0.14 92 1007.8
20260506114509 56 235 0.0 0.0 0.04 0.17 0.13 91 1007.8
20260506114004 56 235 0.0 0.0 0.05 0.17 0.13 91 1007.9
20260506113503 56 235 0.0 0.0 0.04 0.16 0.12 91 1008.0
20260506113004 56 235 0.0 0.9 0.05 0.16 0.12 91 1007.9
20260506112503 56 235 0.0 0.9 0.05 0.16 0.12 91 1007.9
20260506112003 56 235 0.0 0.9 0.05 0.16 0.12 91 1007.9
20260506111507 56 235 0.0 0.9 0.06 0.16 0.12 91 1007.8
20260506111003 56 235 0.0 0.9 0.05 0.15 0.11 91 1007.9
20260506110507 56 235 0.0 0.0 0.06 0.15 0.11 91 1007.8
20260506110014 56 235 0.0 0.0 0.06 0.15 0.11 91 1007.8
20260506105506 56 235 0.0 0.9 0.06 0.14 0.10 91 1007.8
20260506105008 56 235 0.0 0.9 0.06 0.14 0.10 91 1007.7
20260506104527 56 235 0.0 0.9 0.05 0.13 0.09 91 1007.8
20260506104009 56 234 0.0 0.0 0.04 0.12 0.08 91 1007.8
20260506103507 56 234 0.0 0.0 0.05 0.12 0.08 91 1007.8
20260506103023 56 234 0.0 0.0 0.04 0.11 0.07 91 1007.8
20260506102503 56 235 0.0 0.0 0.04 0.11 0.07 91 1007.9
20260506102011 56 234 0.0 0.0 0.04 0.11 0.07 91 1007.9
20260506101503 56 234 0.0 0.0 0.03 0.10 0.06 91 1007.8
20260506101003 56 234 0.0 0.0 0.03 0.10 0.06 91 1007.8
20260506100504 56 234 0.0 0.0 0.03 0.09 0.05 90 1007.8
20260506100008 56 234 0.0 0.9 0.03 0.09 0.05 90 1007.8
20260506095505 56 234 0.0 0.9 0.02 0.08 0.04 90 1007.7
20260506095009 56 234 0.0 0.9 0.02 0.08 0.04 90 1007.7
20260506094512 56 234 0.0 0.9 0.02 0.08 0.04 90 1007.7
20260506094008 56 234 0.0 0.9 0.03 0.08 0.04 90 1007.6
20260506093510 57 234 0.0 0.9 0.02 0.07 0.03 90 1007.6
20260506093018 57 234 0.0 0.9 0.03 0.07 0.03 90 1007.5
20260506092507 57 234 0.0 0.9 0.03 0.07 0.03 89 1007.5
20260506092011 57 234 0.0 0.9 0.03 0.09 0.03 89 1007.5